• In Portugal
  • List of Countries
  • For 7 days
  • Water Temperature
  • Satellite Maps
  • Weather Map
  • Weather Widgets
  • user-avatar
    Login

    Hourly Weather Otok

    Today, 18 July, Wednesday

    Time Temperature Precipitation Wind Pressure Humidity
    00:00 +18°C° 0.1 mm 4 mps 739 mmHg 93%
    01:00 +18°C° 0 mm 4 mps 739 mmHg 93%
    02:00 +18°C° 0.2 mm 4 mps 739 mmHg 92%
    03:00 +17°C° 0.2 mm 5 mps 739 mmHg 92%
    04:00 +17°C° 0.2 mm 5 mps 739 mmHg 92%
    05:00 +17°C° 0.3 mm 5 mps 739 mmHg 91%
    06:00 +17°C° 0.3 mm 6 mps 739 mmHg 90%
    07:00 +19°C° 0.3 mm 6 mps 740 mmHg 89%
    08:00 +19°C° 0.4 mm 6 mps 740 mmHg 88%
    09:00 +20°C° 0.4 mm 6 mps 740 mmHg 86%
    10:00 +20°C° 0.4 mm 7 mps 740 mmHg 85%
    11:00 +20°C° 0.6 mm 6 mps 741 mmHg 83%
    12:00 +21°C° 0.6 mm 6 mps 741 mmHg 82%
    13:00 +21°C° 0.6 mm 6 mps 741 mmHg 81%
    14:00 +21°C° 0.4 mm 6 mps 741 mmHg 79%
    15:00 +22°C° 0.4 mm 5 mps 741 mmHg 78%
    16:00 +22°C° 0.4 mm 5 mps 741 mmHg 76%
    17:00 +22°C° 0.2 mm 4 mps 742 mmHg 78%
    18:00 +21°C° 0.2 mm 4 mps 742 mmHg 81%
    19:00 +20°C° 0.2 mm 3 mps 742 mmHg 83%
    20:00 +20°C° 0.1 mm 3 mps 742 mmHg 85%
    21:00 +19°C° 0.1 mm 2 mps 742 mmHg 87%
    22:00 +19°C° 0.1 mm 2 mps 743 mmHg 89%
    23:00 +18°C° 0 mm 2 mps 743 mmHg 91%

    Tomorrow, 19 July, Thursday

    Time Temperature Precipitation Wind Pressure Humidity
    00:00 +18°C° 0 mm 3 mps 743 mmHg 92%
    01:00 +18°C° 0 mm 3 mps 743 mmHg 93%
    02:00 +17°C° 0 mm 3 mps 743 mmHg 94%
    03:00 +17°C° 0 mm 3 mps 743 mmHg 94%
    04:00 +17°C° 0 mm 3 mps 743 mmHg 94%
    05:00 +17°C° 0 mm 4 mps 743 mmHg 92%
    06:00 +18°C° 0 mm 4 mps 743 mmHg 89%
    07:00 +19°C° 0 mm 5 mps 743 mmHg 86%
    08:00 +20°C° 0.1 mm 5 mps 743 mmHg 82%
    09:00 +21°C° 0.1 mm 5 mps 743 mmHg 77%
    10:00 +22°C° 0.1 mm 5 mps 744 mmHg 73%
    11:00 +22°C° 0.2 mm 5 mps 743 mmHg 71%
    12:00 +23°C° 0.2 mm 5 mps 743 mmHg 69%
    13:00 +23°C° 0.2 mm 5 mps 743 mmHg 68%
    14:00 +25°C° 0.2 mm 5 mps 743 mmHg 67%
    15:00 +25°C° 0.2 mm 5 mps 743 mmHg 66%
    16:00 +25°C° 0.2 mm 5 mps 743 mmHg 65%
    17:00 +23°C° 0 mm 4 mps 743 mmHg 68%
    18:00 +22°C° 0 mm 4 mps 743 mmHg 72%
    19:00 +21°C° 0 mm 3 mps 743 mmHg 76%
    20:00 +20°C° 0 mm 3 mps 744 mmHg 81%
    21:00 +19°C° 0 mm 2 mps 744 mmHg 87%
    22:00 +17°C° 0 mm 2 mps 744 mmHg 92%
    23:00 +17°C° 0 mm 2 mps 744 mmHg 93%

    Day after tomorrow, 20 July, Friday

    Time Temperature Precipitation Wind Pressure Humidity
    00:00 +17°C° 0 mm 2 mps 744 mmHg 93%
    01:00 +17°C° 0 mm 2 mps 744 mmHg 94%
    02:00 +16°C° 0 mm 2 mps 744 mmHg 94%
    03:00 +16°C° 0 mm 2 mps 744 mmHg 94%
    04:00 +16°C° 0 mm 2 mps 744 mmHg 94%
    05:00 +17°C° 0 mm 2 mps 744 mmHg 88%
    06:00 +18°C° 0 mm 2 mps 744 mmHg 83%
    07:00 +19°C° 0 mm 2 mps 744 mmHg 77%
    08:00 +20°C° 0 mm 2 mps 744 mmHg 69%
    09:00 +22°C° 0 mm 3 mps 744 mmHg 60%
    10:00 +24°C° 0 mm 3 mps 744 mmHg 52%
    11:00 +25°C° 0 mm 3 mps 744 mmHg 48%
    12:00 +26°C° 0 mm 3 mps 744 mmHg 44%
    13:00 +27°C° 0 mm 3 mps 743 mmHg 41%
    14:00 +27°C° 0 mm 3 mps 743 mmHg 40%
    15:00 +28°C° 0 mm 2 mps 743 mmHg 39%
    16:00 +28°C° 0 mm 2 mps 742 mmHg 38%
    17:00 +26°C° 0 mm 2 mps 742 mmHg 43%
    18:00 +25°C° 0 mm 2 mps 742 mmHg 49%
    19:00 +24°C° 0 mm 1 mps 742 mmHg 55%
    20:00 +22°C° 0 mm 1 mps 742 mmHg 58%
    21:00 +21°C° 0 mm 1 mps 742 mmHg 62%
    22:00 +19°C° 0 mm 1 mps 742 mmHg 65%
    23:00 +19°C° 0 mm 1 mps 742 mmHg 68%

    21 July, Saturday

    Time Temperature Precipitation Wind Pressure Humidity
    00:00 +18°C° 0 mm 1 mps 741 mmHg 71%
    01:00 +18°C° 0 mm 1 mps 741 mmHg 73%
    02:00 +18°C° 0 mm 1 mps 741 mmHg 75%
    03:00 +18°C° 0 mm 1 mps 741 mmHg 77%
    04:00 +16°C° 0 mm 1 mps 741 mmHg 78%
    05:00 +19°C° 0 mm 1 mps 741 mmHg 74%
    06:00 +21°C° 0 mm 1 mps 741 mmHg 70%
    07:00 +22°C° 0 mm 1 mps 741 mmHg 66%
    08:00 +24°C° 0 mm 1 mps 741 mmHg 60%
    09:00 +25°C° 0 mm 2 mps 741 mmHg 54%
    10:00 +27°C° 0 mm 2 mps 741 mmHg 47%
    11:00 +28°C° 0 mm 1 mps 741 mmHg 45%
    12:00 +29°C° 0 mm 1 mps 740 mmHg 43%
    13:00 +29°C° 0 mm 1 mps 740 mmHg 41%
    14:00 +29°C° 0 mm 1 mps 740 mmHg 43%
    15:00 +29°C° 0 mm 1 mps 740 mmHg 45%
    16:00 +28°C° 0 mm 1 mps 740 mmHg 47%
    17:00 +27°C° 0 mm 1 mps 740 mmHg 52%
    18:00 +26°C° 0 mm 2 mps 739 mmHg 58%
    19:00 +25°C° 0 mm 2 mps 739 mmHg 63%
    20:00 +23°C° 0 mm 2 mps 739 mmHg 67%
    21:00 +21°C° 0 mm 2 mps 740 mmHg 71%
    22:00 +20°C° 0 mm 2 mps 740 mmHg 75%
    23:00 +19°C° 0 mm 2 mps 740 mmHg 77%

    22 July, Sunday

    Time Temperature Precipitation Wind Pressure Humidity
    00:00 +19°C° 0 mm 2 mps 740 mmHg 78%
    01:00 +18°C° 0 mm 2 mps 740 mmHg 80%
    02:00 +19°C° 0 mm 1 mps 740 mmHg 80%
    03:00 +19°C° 0 mm 1 mps 739 mmHg 81%
    04:00 +18°C° 0 mm 1 mps 739 mmHg 82%
    05:00 +19°C° 0 mm 1 mps 740 mmHg 78%
    06:00 +20°C° 0 mm 2 mps 740 mmHg 74%
    07:00 +21°C° 0 mm 2 mps 740 mmHg 70%
    08:00 +23°C° 0 mm 2 mps 740 mmHg 65%
    09:00 +24°C° 0 mm 2 mps 740 mmHg 60%
    10:00 +25°C° 0 mm 2 mps 741 mmHg 55%
    11:00 +26°C° 0.1 mm 2 mps 740 mmHg 53%
    12:00 +27°C° 0.1 mm 3 mps 740 mmHg 50%
    13:00 +27°C° 0.1 mm 3 mps 740 mmHg 47%
    14:00 +27°C° 0.1 mm 3 mps 740 mmHg 45%
    15:00 +27°C° 0.1 mm 4 mps 740 mmHg 44%
    16:00 +27°C° 0.1 mm 4 mps 740 mmHg 43%
    17:00 +26°C° 0 mm 3 mps 741 mmHg 49%
    18:00 +25°C° 0 mm 3 mps 741 mmHg 55%
    19:00 +23°C° 0 mm 2 mps 741 mmHg 60%
    20:00 +21°C° 0 mm 2 mps 741 mmHg 64%
    21:00 +21°C° 0 mm 1 mps 742 mmHg 69%
    22:00 +19°C° 0 mm 1 mps 742 mmHg 73%
    23:00 +19°C° 0 mm 1 mps 742 mmHg 75%

    23 July, Monday

    Time Temperature Precipitation Wind Pressure Humidity
    00:00 +18°C° 0 mm 1 mps 742 mmHg 78%
    01:00 +18°C° 0 mm 1 mps 743 mmHg 81%
    02:00 +18°C° 0 mm 1 mps 743 mmHg 83%
    03:00 +16°C° 0 mm 1 mps 743 mmHg 86%
    04:00 +16°C° 0 mm 1 mps 743 mmHg 88%
    05:00 +18°C° 0 mm 1 mps 743 mmHg 82%
    06:00 +20°C° 0 mm 1 mps 744 mmHg 77%
    07:00 +21°C° 0 mm 1 mps 744 mmHg 71%
    08:00 +23°C° 0 mm 2 mps 744 mmHg 65%
    09:00 +24°C° 0 mm 2 mps 744 mmHg 60%
    10:00 +25°C° 0 mm 2 mps 744 mmHg 54%
    11:00 +26°C° 0.1 mm 2 mps 744 mmHg 52%
    12:00 +26°C° 0.1 mm 3 mps 744 mmHg 49%
    13:00 +27°C° 0.1 mm 3 mps 744 mmHg 47%
    14:00 +27°C° 0 mm 3 mps 743 mmHg 47%
    15:00 +27°C° 0 mm 3 mps 743 mmHg 48%
    16:00 +27°C° 0 mm 3 mps 743 mmHg 49%
    17:00 +26°C° 0 mm 3 mps 743 mmHg 53%
    18:00 +25°C° 0 mm 2 mps 743 mmHg 57%
    19:00 +24°C° 0 mm 1 mps 743 mmHg 61%
    20:00 +22°C° 0 mm 1 mps 743 mmHg 65%
    21:00 +21°C° 0 mm 1 mps 744 mmHg 69%
    22:00 +19°C° 0 mm 1 mps 744 mmHg 74%
    23:00 +19°C° 0 mm 1 mps 744 mmHg 77%
    Show more